Weather History for Reading, PA

Change the Weather History Date:

Wednesday, December 12, 2012

  Actual Average Record
Temperature  
Mean Temperature 36 °F 35 °F  
Max Temperature 43 °F 43 °F 66 °F (1911)
Min Temperature 28 °F 27 °F 1 °F (1977)
Degree Days  
Heating Degree Days 29 30  
Month to date heating degree days 259 342  
Since 1 July heating degree days 1310 1409  
Cooling Degree Days 0 0  
Month to date cooling degree days 0 0  
Year to date cooling degree days 1281 896  
Moisture  
Dew Point 27 °F    
Average Humidity 71    
Maximum Humidity 92    
Minimum Humidity 49    
Precipitation  
Precipitation 0.00 in 0.12 in 1.39 in (1959)
Month to date precipitation 0.69 1.40  
Year to date precipitation 36.61 41.38  
Sea Level Pressure  
Sea Level Pressure 30.39 in    
Wind  
Wind Speed 2 mph (NW)    
Max Wind Speed 10 mph    
Max Gust Speed 12 mph    
Visibility 10 miles    
Events      
T = Trace of Precipitation, MM = Missing Value Source: NWS Daily Summary

Daily Weather History Graph

Daily Weather History Graph

Search for Another Location

Airport:

Trip Planner

Search our weather history database for the weather conditions in past years. The results will help you decide how hot, cold, wet, or windy it might be!

Date:

Astronomy

Dec. 12, 2012 Rise Set
Actual Time 7:17 AM EST 4:37 PM EST
Civil Twilight 6:47 AM EST 5:08 PM EST
Nautical Twilight 6:12 AM EST 5:42 PM EST
Astronomical Twilight 5:39 AM EST 6:15 PM EST
Moon 6:19 AM EST (12/12) 4:12 PM EST (12/12)
Length of Visible Light 10h 21m
Length of Day
9h 19m
Waning Crescent, 1% of the Moon is Illuminated
Dec 12
Waning Crescent
Dec 13
New
Dec 20
First Quarter
Dec 28
Full
Jan 4
Last Quarter

Hourly Weather History & Observations

Time (EST) Temp. Windchill Dew Point Humidity Pressure Visibility Wind Dir Wind Speed Gust Speed Precip Events Conditions
12:54 AM 33.1 °F - 26.1 °F 75% 30.23 in 10.0 mi Calm Calm - N/A   Clear
1:54 AM 30.0 °F - 28.0 °F 92% 30.26 in 6.0 mi Calm Calm - N/A   Clear
2:54 AM 30.0 °F - 27.0 °F 88% 30.27 in 10.0 mi Calm Calm - N/A   Clear
3:54 AM 30.0 °F - 26.1 °F 85% 30.30 in 10.0 mi Calm Calm - N/A   Clear
4:54 AM 28.9 °F - 26.1 °F 89% 30.32 in 10.0 mi Calm Calm - N/A   Clear
5:54 AM 30.0 °F - 26.1 °F 85% 30.34 in 10.0 mi Calm Calm - N/A   Clear
6:54 AM 30.0 °F - 27.0 °F 88% 30.36 in 10.0 mi Calm Calm - N/A   Clear
7:54 AM 30.9 °F - 27.0 °F 85% 30.39 in 10.0 mi Calm Calm - N/A   Clear
8:54 AM 36.0 °F - 28.9 °F 76% 30.40 in 10.0 mi Calm Calm - N/A   Clear
9:54 AM 37.9 °F - 28.9 °F 70% 30.42 in 10.0 mi Calm Calm - N/A   Clear
10:54 AM 39.9 °F 35.8 °F 28.0 °F 63% 30.43 in 10.0 mi WNW 5.8 mph - N/A   Clear
11:54 AM 41.0 °F 37.1 °F 26.1 °F 55% 30.41 in 10.0 mi NNW 5.8 mph - N/A   Clear
12:54 PM 42.1 °F 38.4 °F 26.1 °F 53% 30.39 in 10.0 mi NW 5.8 mph - N/A   Clear
1:54 PM 42.1 °F - 25.0 °F 51% 30.41 in 10.0 mi Calm Calm - N/A   Clear
2:54 PM 41.0 °F 35.8 °F 26.1 °F 55% 30.41 in 10.0 mi NW 8.1 mph - N/A   Clear
3:54 PM 39.0 °F 35.7 °F 26.1 °F 60% 30.41 in 10.0 mi WNW 4.6 mph - N/A   Clear
4:54 PM 37.9 °F 34.4 °F 24.1 °F 57% 30.42 in 10.0 mi WNW 4.6 mph - N/A   Clear
5:54 PM 37.9 °F - 25.0 °F 60% 30.42 in 10.0 mi Calm Calm - N/A   Clear
6:54 PM 35.1 °F - 26.1 °F 70% 30.41 in 10.0 mi Calm Calm - N/A   Clear
7:54 PM 34.0 °F - 27.0 °F 75% 30.43 in 10.0 mi Calm Calm - N/A   Clear
8:54 PM 35.1 °F - 26.1 °F 70% 30.45 in 10.0 mi Calm Calm - N/A   Clear
9:54 PM 32.0 °F - 27.0 °F 82% 30.45 in 10.0 mi Calm Calm - N/A   Clear
10:54 PM 30.9 °F 27.5 °F 27.0 °F 85% 30.47 in 10.0 mi NNW 3.5 mph - N/A   Clear
11:54 PM 30.9 °F - 27.0 °F 85% 30.45 in 10.0 mi Calm Calm - N/A   Clear